Location: *
(51.1248°S, 108.4023°W)
Time: 20:38:02
(UTC+00:00)

Cosmos 2278 Rocket - Pass Details

Date: 30 October 2021
Orbit: 841 x 845 km, 71.0° (Epoch: 30 November)

Event Time Altitude Azimuth Distance (km) Brightness Sun altitude
Exits shadow 06:45:17 18° 288° (WNW) 1,953 3.9 -24.9°
Maximum altitude 06:49:00 39° 228° (SW) 1,260 3.4 -25.0°
Drops below altitude 10° 06:54:23 10° 159° (SSE) 2,499 5.5 -25.0°
Sets 06:57:01 0° 151° (SSE) 3,440 6.3 -25.0°
